Weather History for Glenwood, MN

Change the Weather History Date:

Thursday, January 2, 2014

  Actual Average Record
Temperature  
Mean Temperature -9 °F -  
Max Temperature -2 °F 21 °F 40 °F (1962)
Min Temperature -16 °F 2 °F -24 °F (1985)
Degree Days  
Heating Degree Days 74    
Moisture  
Dew Point -16 °F    
Average Humidity 77    
Maximum Humidity 84    
Minimum Humidity 60    
Precipitation  
Precipitation 0.00 in - - ()
Sea Level Pressure  
Sea Level Pressure 30.39 in    
Wind  
Wind Speed 4 mph (NNE)    
Max Wind Speed 12 mph    
Max Gust Speed -    
Visibility 10 miles    
Events      
Averages and records for this station are not official NWS values.
T = Trace of Precipitation, MM = Missing Value Source: NWS Daily Summary

Daily Weather History Graph

Daily Weather History Graph

Search for Another Location

Airport:

Trip Planner

Search our weather history database for the weather conditions in past years. The results will help you decide how hot, cold, wet, or windy it might be!

Date:

Astronomy

Jan. 02, 2014 Rise Set
Actual Time 8:01 AM CST 4:49 PM CST
Civil Twilight 7:27 AM CST 5:23 PM CST
Nautical Twilight 6:50 AM CST 6:00 PM CST
Astronomical Twilight 6:14 AM CST 6:36 PM CST
Moon 8:38 AM CST (1/2) 6:54 PM CST (1/2)
Length of Visible Light 9h 55m
Length of Day
8h 47m
Waxing Crescent, 3% of the Moon is Illuminated
Jan 2
Waxing Crescent
Jan 7
First Quarter
Jan 15
Full
Jan 23
Last Quarter
Jan 30
New

Hourly Weather History & Observations

Time (CST) Temp. Windchill Dew Point Humidity Pressure Visibility Wind Dir Wind Speed Gust Speed Precip Events Conditions
12:14 AM -5.8 °F -14.5 °F -11.2 °F 77% 30.39 in 10.0 mi NE 3.5 mph - N/A   Overcast
12:33 AM -5.8 °F -16.7 °F -11.2 °F 77% 30.38 in 10.0 mi NNE 4.6 mph - N/A   Overcast
12:53 AM -7.6 °F -18.8 °F -11.2 °F 84% 30.38 in 10.0 mi NNE 4.6 mph - N/A   Overcast
1:14 AM -9.4 °F -20.9 °F -13.0 °F 84% 30.38 in 10.0 mi NE 4.6 mph - N/A   Scattered Clouds
1:33 AM -9.4 °F -18.6 °F -13.0 °F 84% 30.38 in 10.0 mi North 3.5 mph - N/A   Clear
1:53 AM -9.4 °F -18.6 °F -13.0 °F 84% 30.38 in 10.0 mi North 3.5 mph - N/A   Clear
2:13 AM -9.4 °F -20.9 °F -14.8 °F 77% 30.39 in 10.0 mi North 4.6 mph - N/A   Clear
2:33 AM -9.4 °F -20.9 °F -14.8 °F 77% 30.39 in 10.0 mi North 4.6 mph - N/A   Clear
2:54 AM -11.2 °F -23.0 °F -16.6 °F 77% 30.39 in 10.0 mi NNE 4.6 mph - N/A   Clear
3:13 AM -11.2 °F -24.8 °F -16.6 °F 77% 30.40 in 10.0 mi NNE 5.8 mph - N/A   Clear
3:33 AM -11.2 °F -23.0 °F -16.6 °F 77% 30.39 in 10.0 mi North 4.6 mph - N/A   Clear
3:54 AM -11.2 °F -23.0 °F -16.6 °F 77% 30.39 in 10.0 mi North 4.6 mph - N/A   Clear
4:13 AM -14.8 °F -29.1 °F -18.4 °F 84% 30.40 in 10.0 mi North 5.8 mph - N/A   Clear
4:33 AM -13.0 °F -27.0 °F -16.6 °F 84% 30.40 in 10.0 mi North 5.8 mph - N/A   Clear
4:54 AM -13.0 °F -27.0 °F -18.4 °F 77% 30.40 in 10.0 mi North 5.8 mph - N/A   Clear
5:13 AM -14.8 °F -29.1 °F -18.4 °F 84% 30.40 in 10.0 mi North 5.8 mph - N/A   Clear
5:33 AM -14.8 °F -27.2 °F -18.4 °F 84% 30.40 in 10.0 mi North 4.6 mph - N/A   Clear
5:54 AM -14.8 °F -29.1 °F -18.4 °F 84% 30.41 in 10.0 mi North 5.8 mph - N/A   Clear
6:13 AM -14.8 °F -30.8 °F -18.4 °F 84% 30.41 in 10.0 mi North 6.9 mph - N/A   Clear
6:33 AM -14.8 °F -30.8 °F -18.4 °F 84% 30.42 in 10.0 mi North 6.9 mph - N/A   Clear
6:53 AM -14.8 °F -29.1 °F -18.4 °F 84% 30.41 in 10.0 mi North 5.8 mph - N/A   Clear
7:13 AM -16.6 °F -31.3 °F -20.2 °F 84% 30.41 in 10.0 mi North 5.8 mph - N/A   Clear
7:33 AM -16.6 °F -31.3 °F -20.2 °F 84% 30.41 in 10.0 mi North 5.8 mph - N/A   Clear
7:53 AM -16.6 °F -29.3 °F -20.2 °F 84% 30.41 in 10.0 mi North 4.6 mph - N/A   Clear
8:13 AM -16.6 °F -26.8 °F -22.0 °F 76% 30.42 in 10.0 mi North 3.5 mph - N/A   Clear
8:33 AM -16.6 °F -29.3 °F -20.2 °F 84% 30.44 in 10.0 mi NNW 4.6 mph - N/A   Clear
8:53 AM -16.6 °F -26.8 °F -20.2 °F 84% 30.43 in 10.0 mi North 3.5 mph - N/A   Clear
9:13 AM -16.6 °F - -20.2 °F 84% 30.44 in 10.0 mi Calm Calm - N/A   Clear
9:34 AM -14.8 °F - -18.4 °F 84% 30.45 in 10.0 mi Calm Calm - N/A   Clear
9:53 AM -13.0 °F -22.7 °F -16.6 °F 84% 30.44 in 10.0 mi NNE 3.5 mph - N/A   Clear
10:13 AM -11.2 °F - -16.6 °F 77% 30.45 in 10.0 mi Calm Calm - N/A   Clear
10:34 AM -9.4 °F -18.6 °F -14.8 °F 77% 30.46 in 10.0 mi NNE 3.5 mph - N/A   Clear
10:53 AM -9.4 °F - -13.0 °F 84% 30.46 in 10.0 mi Calm Calm - N/A   Clear
11:13 AM -7.6 °F - -11.2 °F 84% 30.45 in 10.0 mi Calm Calm - N/A   Clear
11:34 AM -7.6 °F - -13.0 °F 77% 30.44 in 10.0 mi Calm Calm - N/A   Clear
11:53 AM -4.0 °F - -13.0 °F 65% 30.44 in 10.0 mi Calm Calm - N/A   Clear
12:13 PM -5.8 °F - -14.8 °F 65% 30.43 in 10.0 mi Calm Calm - N/A   Clear
12:33 PM -5.8 °F - -14.8 °F 65% 30.43 in 10.0 mi Calm Calm - N/A   Clear
12:53 PM -5.8 °F - -14.8 °F 65% 30.43 in 10.0 mi Calm Calm - N/A   Clear
1:13 PM -4.0 °F - -13.0 °F 65% 30.41 in 10.0 mi Calm Calm - N/A   Clear
1:33 PM -2.2 °F - -13.0 °F 60% 30.42 in 10.0 mi Calm Calm - N/A   Clear
1:53 PM -4.0 °F - -13.0 °F 65% 30.41 in 10.0 mi Calm Calm - N/A   Clear
2:14 PM -2.2 °F - -13.0 °F 60% 30.41 in 10.0 mi Calm Calm - N/A   Clear
2:33 PM -2.2 °F - -13.0 °F 60% 30.41 in 10.0 mi Calm Calm - N/A   Clear
2:53 PM -4.0 °F - -13.0 °F 65% 30.42 in 10.0 mi Calm Calm - N/A   Clear
3:14 PM -4.0 °F - -13.0 °F 65% 30.42 in 10.0 mi Calm Calm - N/A   Clear
3:33 PM -4.0 °F - -13.0 °F 65% 30.42 in 10.0 mi Calm Calm - N/A   Clear
3:53 PM -4.0 °F - -13.0 °F 65% 30.41 in 10.0 mi Calm Calm - N/A   Clear
4:13 PM -5.8 °F - -13.0 °F 71% 30.41 in 10.0 mi Calm Calm - N/A   Clear
4:33 PM -5.8 °F - -14.8 °F 65% 30.40 in 10.0 mi Calm Calm - N/A   Clear
4:53 PM -7.6 °F - -14.8 °F 71% 30.40 in 10.0 mi Calm Calm - N/A   Clear
5:13 PM -7.6 °F - -14.8 °F 71% 30.39 in 10.0 mi Calm Calm - N/A   Clear
5:33 PM -9.4 °F -18.6 °F -14.8 °F 77% 30.39 in 10.0 mi WSW 3.5 mph - N/A   Clear
5:53 PM -9.4 °F - -14.8 °F 77% 30.39 in 10.0 mi Calm Calm - N/A   Clear
6:13 PM -11.2 °F -20.6 °F -16.6 °F 77% 30.38 in 10.0 mi SSW 3.5 mph - N/A   Clear
6:33 PM -11.2 °F -23.0 °F -16.6 °F 77% 30.37 in 10.0 mi SSW 4.6 mph - N/A   Clear
6:53 PM -11.2 °F -23.0 °F -16.6 °F 77% 30.36 in 10.0 mi South 4.6 mph - N/A   Clear
7:13 PM -11.2 °F -23.0 °F -16.6 °F 77% 30.36 in 10.0 mi South 4.6 mph - N/A   Clear
7:34 PM -14.8 °F -29.1 °F -18.4 °F 84% 30.34 in 10.0 mi SE 5.8 mph - N/A   Clear
7:53 PM -14.8 °F -29.1 °F -18.4 °F 84% 30.33 in 10.0 mi South 5.8 mph - N/A   Clear
8:13 PM -14.8 °F -32.2 °F -18.4 °F 84% 30.32 in 10.0 mi South 8.1 mph - N/A   Clear
8:34 PM -16.6 °F -32.9 °F -20.2 °F 84% 30.31 in 10.0 mi South 6.9 mph - N/A   Clear
8:53 PM -16.6 °F -32.9 °F -20.2 °F 84% 30.31 in 10.0 mi South 6.9 mph - N/A   Clear
9:13 PM -16.6 °F -32.9 °F -20.2 °F 84% 30.30 in 10.0 mi South 6.9 mph - N/A   Clear
9:33 PM -14.8 °F -30.8 °F -20.2 °F 77% 30.31 in 10.0 mi South 6.9 mph - N/A   Clear
9:53 PM -14.8 °F -33.5 °F -20.2 °F 77% 30.30 in 10.0 mi South 9.2 mph - N/A   Clear
10:13 PM -14.8 °F -33.5 °F -20.2 °F 77% 30.29 in 10.0 mi South 9.2 mph - N/A   Clear
10:33 PM -14.8 °F -33.5 °F -18.4 °F 84% 30.28 in 10.0 mi South 9.2 mph - N/A   Clear
10:53 PM -14.8 °F -33.5 °F -18.4 °F 84% 30.26 in 10.0 mi South 9.2 mph - N/A   Clear
11:13 PM -13.0 °F -33.4 °F -16.6 °F 84% 30.25 in 10.0 mi South 11.5 mph - N/A   Clear
11:33 PM -11.2 °F -31.1 °F -16.6 °F 77% 30.24 in 10.0 mi South 11.5 mph - N/A   Clear
11:53 PM -11.2 °F -30.1 °F -16.6 °F 77% 30.23 in 10.0 mi South 10.4 mph - N/A   Clear